| time (UTC) | temp C | wind direction | speed KPH | gust KPH | rain 1hr cm | rain 24hr cm | rain mn cm | humidity % | barometer mb |
| 20260502230838 | 8 | 243 | 8.0 | 9.7 | 0.00 | 0.00 | 0.00 | 51 | 1013.5 |
| 20260502230336 | 8 | 209 | 3.2 | 9.7 | 0.00 | 0.00 | 0.00 | 49 | 1013.4 |
| 20260502225832 | 8 | 263 | 3.2 | 6.4 | 0.00 | 0.00 | 0.00 | 51 | 1013.5 |
| 20260502225328 | 8 | 253 | 4.8 | 6.4 | 0.00 | 0.00 | 0.00 | 50 | 1013.7 |
| 20260502224826 | 8 | 265 | 3.2 | 4.8 | 0.00 | 0.00 | 0.00 | 50 | 1013.7 |
| 20260502224321 | 8 | 231 | 3.2 | 4.8 | 0.00 | 0.00 | 0.00 | 52 | 1013.6 |
| 20260502223819 | 8 | 230 | 3.2 | 4.8 | 0.00 | 0.00 | 0.00 | 54 | 1013.5 |
| 20260502223317 | 7 | 282 | 4.8 | 6.4 | 0.00 | 0.00 | 0.00 | 52 | 1013.5 |
| 20260502222815 | 7 | 285 | 3.2 | 6.4 | 0.00 | 0.00 | 0.00 | 51 | 1013.7 |
| 20260502222312 | 7 | 275 | 4.8 | 4.8 | 0.00 | 0.00 | 0.00 | 52 | 1013.6 |
| 20260502221808 | 8 | 16 | 1.6 | 4.8 | 0.00 | 0.00 | 0.00 | 51 | 1013.5 |
| 20260502221304 | 8 | 175 | 1.6 | 3.2 | 0.00 | 0.00 | 0.00 | 53 | 1013.6 |
| 20260502220801 | 8 | 197 | 3.2 | 6.4 | 0.00 | 0.00 | 0.00 | 50 | 1013.6 |
| 20260502220257 | 8 | 255 | 8.0 | 12.9 | 0.00 | 0.00 | 0.00 | 51 | 1013.4 |
| 20260502215754 | 8 | 247 | 8.0 | 14.5 | 0.00 | 0.00 | 0.00 | 50 | 1013.4 |
| 20260502215251 | 8 | 297 | 4.8 | 12.9 | 0.00 | 0.00 | 0.00 | 49 | 1013.3 |
| 20260502214748 | 8 | 272 | 6.4 | 16.1 | 0.00 | 0.00 | 0.00 | 50 | 1013.5 |
| 20260502214245 | 8 | 261 | 6.4 | 14.5 | 0.00 | 0.00 | 0.00 | 49 | 1013.4 |
| 20260502213742 | 9 | 304 | 9.7 | 12.9 | 0.00 | 0.00 | 0.00 | 49 | 1013.6 |
| 20260502213239 | 10 | 233 | 4.8 | 11.3 | 0.00 | 0.00 | 0.00 | 45 | 1013.6 |
| 20260502212738 | 10 | 277 | 9.7 | 17.7 | 0.00 | 0.00 | 0.00 | 43 | 1013.5 |
| 20260502212236 | 10 | 295 | 8.0 | 12.9 | 0.00 | 0.00 | 0.00 | 46 | 1013.4 |
| 20260502211731 | 9 | 244 | 8.0 | 12.9 | 0.00 | 0.00 | 0.00 | 48 | 1013.4 |
| 20260502211229 | 10 | 155 | 1.6 | 6.4 | 0.00 | 0.00 | 0.00 | 48 | 1013.4 |
| 20260502210726 | 10 | 325 | 12.9 | 17.7 | 0.00 | 0.00 | 0.00 | 44 | 1013.6 |
| 20260502210223 | 10 | 265 | 3.2 | 16.1 | 0.00 | 0.00 | 0.00 | 50 | 1013.4 |
| 20260502205720 | 8 | 290 | 11.3 | 14.5 | 0.00 | 0.00 | 0.00 | 48 | 1013.7 |
| 20260502205216 | 8 | 275 | 9.7 | 11.3 | 0.00 | 0.00 | 0.00 | 50 | 1013.6 |
| 20260502204713 | 7 | 252 | 6.4 | 14.5 | 0.00 | 0.00 | 0.00 | 48 | 1013.8 |
| 20260502204211 | 8 | 245 | 8.0 | 14.5 | 0.00 | 0.00 | 0.00 | 49 | 1013.6 |
| 20260502203708 | 8 | 238 | 6.4 | 16.1 | 0.00 | 0.00 | 0.00 | 50 | 1013.7 |
| 20260502203206 | 8 | 224 | 8.0 | 14.5 | 0.00 | 0.00 | 0.00 | 48 | 1013.9 |
| 20260502202700 | 10 | 288 | 6.4 | 14.5 | 0.00 | 0.00 | 0.00 | 41 | 1013.9 |
| 20260502202159 | 8 | 219 | 3.2 | 4.8 | 0.00 | 0.00 | 0.00 | 48 | 1014.0 |
| 20260502201656 | 8 | 294 | 9.7 | 12.9 | 0.00 | 0.00 | 0.00 | 47 | 1014.1 |
| 20260502201152 | 8 | 271 | 4.8 | 9.7 | 0.00 | 0.00 | 0.00 | 48 | 1013.9 |
| 20260502200648 | 9 | 247 | 8.0 | 17.7 | 0.00 | 0.00 | 0.00 | 48 | 1014.1 |
| 20260502200144 | 8 | 215 | 3.2 | 6.4 | 0.00 | 0.00 | 0.00 | 50 | 1014.1 |
| 20260502195643 | 8 | 257 | 9.7 | 14.5 | 0.00 | 0.00 | 0.00 | 50 | 1014.0 |
| 20260502195139 | 8 | 248 | 6.4 | 12.9 | 0.00 | 0.00 | 0.00 | 49 | 1014.1 |
| 20260502194636 | 8 | 273 | 6.4 | 14.5 | 0.00 | 0.00 | 0.00 | 46 | 1014.0 |
| 20260502194133 | 9 | 280 | 11.3 | 12.9 | 0.00 | 0.00 | 0.00 | 46 | 1014.2 |
| 20260502193629 | 9 | 295 | 8.0 | 12.9 | 0.00 | 0.00 | 0.00 | 44 | 1014.1 |
| 20260502193126 | 8 | 230 | 3.2 | 11.3 | 0.00 | 0.00 | 0.00 | 48 | 1014.3 |
| 20260502192621 | 8 | 245 | 3.2 | 6.4 | 0.00 | 0.00 | 0.00 | 49 | 1014.4 |
| 20260502192119 | 8 | 251 | 6.4 | 16.1 | 0.00 | 0.00 | 0.00 | 47 | 1014.3 |
| 20260502191616 | 9 | 249 | 9.7 | 12.9 | 0.00 | 0.00 | 0.00 | 44 | 1014.6 |
| 20260502191113 | 10 | 244 | 4.8 | 6.4 | 0.00 | 0.00 | 0.00 | 44 | 1014.4 |
| 20260502190611 | 8 | 304 | 1.6 | 11.3 | 0.00 | 0.00 | 0.00 | 50 | 1014.6 |
| 20260502190108 | 8 | 242 | 9.7 | 11.3 | 0.00 | 0.00 | 0.00 | 48 | 1014.7 |
| 20260502185602 | 8 | 248 | 4.8 | 12.9 | 0.00 | 0.00 | 0.00 | 47 | 1014.7 |
| 20260502185100 | 8 | 299 | 6.4 | 9.7 | 0.00 | 0.00 | 0.00 | 49 | 1014.6 |
| 20260502184556 | 8 | 236 | 8.0 | 16.1 | 0.00 | 0.00 | 0.00 | 45 | 1014.7 |
| 20260502184051 | 10 | 276 | 8.0 | 12.9 | 0.00 | 0.00 | 0.00 | 44 | 1014.8 |
| 20260502183548 | 9 | 302 | 4.8 | 6.4 | 0.00 | 0.00 | 0.00 | 48 | 1014.7 |
| 20260502183044 | 8 | 267 | 9.7 | 12.9 | 0.00 | 0.00 | 0.00 | 48 | 1014.9 |
| 20260502182539 | 8 | 275 | 6.4 | 16.1 | 0.00 | 0.00 | 0.00 | 49 | 1014.8 |
| 20260502182036 | 8 | 359 | 1.6 | 9.7 | 0.00 | 0.00 | 0.00 | 48 | 1014.8 |
| 20260502181534 | 8 | 251 | 4.8 | 12.9 | 0.00 | 0.00 | 0.00 | 49 | 1014.9 |
| 20260502181032 | 8 | 273 | 6.4 | 14.5 | 0.00 | 0.00 | 0.00 | 47 | 1014.9 |
| 20260502180529 | 9 | 323 | 9.7 | 16.1 | 0.00 | 0.00 | 0.00 | 47 | 1015.1 |
| 20260502170448 | 7 | 268 | 9.7 | 11.3 | 0.00 | 0.00 | 0.00 | 48 | 1015.2 |
| 20260502163931 | 7 | 275 | 3.2 | 6.4 | 0.00 | 0.00 | 0.00 | 48 | 1015.5 |
| 20260502163427 | 7 | 275 | 4.8 | 12.9 | 0.00 | 0.00 | 0.00 | 51 | 1015.6 |
| 20260502162925 | 7 | 273 | 4.8 | 12.9 | 0.00 | 0.00 | 0.00 | 52 | 1015.7 |
| 20260502162422 | 8 | 3 | 9.7 | 11.3 | 0.00 | 0.00 | 0.00 | 49 | 1015.5 |
| 20260502161919 | 7 | 320 | 14.5 | 20.9 | 0.00 | 0.00 | 0.00 | 49 | 1015.3 |
| 20260502161415 | 6 | 328 | 1.6 | 16.1 | 0.00 | 0.00 | 0.00 | 53 | 1015.6 |
| 20260502160913 | 7 | 239 | 11.3 | 16.1 | 0.00 | 0.00 | 0.00 | 50 | 1015.6 |
| 20260502160411 | 7 | 190 | 1.6 | 4.8 | 0.00 | 0.00 | 0.00 | 52 | 1015.9 |
| 20260502152334 | 6 | 44 | 3.2 | 6.4 | 0.00 | 0.00 | 0.00 | 62 | 1015.5 |
| 20260502151832 | 6 | 325 | 6.4 | 11.3 | 0.00 | 0.00 | 0.00 | 57 | 1015.4 |
| 20260502151328 | 7 | 316 | 3.2 | 4.8 | 0.00 | 0.00 | 0.00 | 52 | 1015.6 |
| 20260502150826 | 6 | 49 | 1.6 | 6.4 | 0.00 | 0.00 | 0.00 | 59 | 1015.5 |
| 20260502150322 | 6 | 112 | 1.6 | 4.8 | 0.00 | 0.00 | 0.00 | 57 | 1015.4 |
| 20260502130710 | 4 | 347 | 11.3 | 14.5 | 0.00 | 0.00 | 0.00 | 71 | 1015.5 |
| 20260502130208 | 4 | 1 | 6.4 | 11.3 | 0.00 | 0.00 | 0.00 | 73 | 1015.6 |
| 20260502123654 | 3 | 198 | 1.6 | 9.7 | 0.00 | 0.00 | 0.00 | 76 | 1015.5 |
| 20260502123150 | 3 | 14 | 1.6 | 14.5 | 0.00 | 0.00 | 0.00 | 76 | 1015.7 |
| 20260502122647 | 3 | 16 | 6.4 | 6.4 | 0.00 | 0.00 | 0.00 | 77 | 1015.6 |
| 20260502122143 | 3 | 31 | 6.4 | 9.7 | 0.00 | 0.00 | 0.00 | 76 | 1015.4 |
| 20260502121642 | 3 | 331 | 4.8 | 9.7 | 0.00 | 0.00 | 0.00 | 78 | 1015.4 |
| 20260502121139 | 2 | 82 | 1.6 | 6.4 | 0.00 | 0.00 | 0.00 | 77 | 1015.4 |
| 20260502120635 | 3 | 151 | 1.6 | 4.8 | 0.00 | 0.00 | 0.00 | 77 | 1015.3 |
| 20260502120132 | 3 | 3 | 3.2 | 9.7 | 0.00 | 0.00 | 0.00 | 78 | 1015.3 |
| 20260502115630 | 2 | 357 | 3.2 | 6.4 | 0.00 | 0.00 | 0.00 | 79 | 1015.3 |
| 20260502115126 | 2 | 93 | 1.6 | 6.4 | 0.00 | 0.00 | 0.00 | 78 | 1015.2 |
| 20260502114622 | 2 | 132 | 0.0 | 3.2 | 0.00 | 0.00 | 0.00 | 80 | 1015.3 |
| 20260502114120 | 2 | 118 | 0.0 | 3.2 | 0.00 | 0.00 | 0.00 | 81 | 1015.2 |
| 20260502113617 | 2 | 125 | 0.0 | 4.8 | 0.00 | 0.00 | 0.00 | 82 | 1015.1 |
| 20260502113115 | 2 | 151 | 1.6 | 1.6 | 0.00 | 0.00 | 0.00 | 83 | 1014.8 |
| 20260502112612 | 1 | 123 | 0.0 | 1.6 | 0.00 | 0.00 | 0.00 | 85 | 1015.0 |
| 20260502112110 | 1 | 99 | 1.6 | 3.2 | 0.00 | 0.00 | 0.00 | 86 | 1014.9 |
| 20260502111607 | 1 | 145 | 0.0 | 1.6 | 0.00 | 0.00 | 0.00 | 87 | 1015.1 |
| 20260502111104 | 0 | 145 | 0.0 | 3.2 | 0.00 | 0.00 | 0.00 | 89 | 1015.0 |
| 20260502110602 | 0 | 143 | 0.0 | 1.6 | 0.00 | 0.00 | 0.00 | 90 | 1014.8 |
| 20260502110059 | 0 | 155 | 1.6 | 1.6 | 0.00 | 0.00 | 0.00 | 90 | 1014.9 |
| 20260502105556 | 0 | 156 | 0.0 | 3.2 | 0.00 | 0.00 | 0.00 | 90 | 1014.8 |
| 20260502105054 | 0 | 167 | 1.6 | 3.2 | 0.00 | 0.00 | 0.00 | 90 | 1014.8 |
| 20260502104551 | 0 | 152 | 1.6 | 1.6 | 0.00 | 0.00 | 0.00 | 90 | 1014.8 |
| 20260502104048 | 0 | 152 | 0.0 | 1.6 | 0.00 | 0.00 | 0.00 | 89 | 1014.8 |
| 20260502103546 | 0 | 152 | 0.0 | 1.6 | 0.00 | 0.00 | 0.00 | 89 | 1014.7 |
| 20260502103044 | 0 | 152 | 0.0 | 1.6 | 0.00 | 0.00 | 0.00 | 88 | 1014.7 |
| 20260502102540 | 0 | 154 | 1.6 | 1.6 | 0.00 | 0.00 | 0.00 | 88 | 1014.9 |
| 20260502102037 | 0 | 157 | 0.0 | 1.6 | 0.00 | 0.00 | 0.00 | 88 | 1014.8 |
| 20260502101535 | 0 | 160 | 1.6 | 3.2 | 0.00 | 0.00 | 0.00 | 88 | 1014.8 |
| 20260502101033 | 0 | 177 | 1.6 | 3.2 | 0.00 | 0.00 | 0.00 | 88 | 1014.8 |
| 20260502100531 | 0 | 161 | 0.0 | 3.2 | 0.00 | 0.00 | 0.00 | 88 | 1014.7 |
| 20260502091506 | 0 | 154 | 1.6 | 1.6 | 0.00 | 0.00 | 0.00 | 88 | 1014.7 |
| 20260502091003 | 0 | 154 | 0.0 | 1.6 | 0.00 | 0.00 | 0.00 | 87 | 1014.6 |
| 20260502090500 | 0 | 165 | 1.6 | 3.2 | 0.00 | 0.00 | 0.00 | 86 | 1014.3 |
| 20260502071354 | 2 | 111 | 0.0 | 1.6 | 0.00 | 0.00 | 0.00 | 75 | 1014.0 |
| 20260502070853 | 2 | 108 | 0.0 | 3.2 | 0.00 | 0.00 | 0.00 | 74 | 1013.8 |
| 20260502070350 | 3 | 103 | 0.0 | 1.6 | 0.00 | 0.00 | 0.00 | 73 | 1013.9 |
| 20260502065849 | 3 | 113 | 0.0 | 4.8 | 0.00 | 0.00 | 0.00 | 73 | 1013.8 |
| 20260502065346 | 3 | 45 | 4.8 | 4.8 | 0.00 | 0.00 | 0.00 | 73 | 1014.0 |
| 20260502064844 | 3 | 39 | 3.2 | 4.8 | 0.00 | 0.00 | 0.00 | 74 | 1014.1 |
| 20260502064342 | 3 | 99 | 1.6 | 3.2 | 0.00 | 0.00 | 0.00 | 73 | 1014.1 |
| 20260502063839 | 3 | 113 | 0.0 | 0.0 | 0.00 | 0.00 | 0.00 | 73 | 1014.1 |
| 20260502063337 | 3 | 109 | 0.0 | 4.8 | 0.00 | 0.00 | 0.00 | 72 | 1014.0 |
| 20260502062834 | 3 | 15 | 3.2 | 11.3 | 0.00 | 0.00 | 0.00 | 72 | 1014.2 |
| 20260502062331 | 3 | 102 | 0.0 | 1.6 | 0.00 | 0.00 | 0.00 | 72 | 1014.3 |
| 20260502061830 | 3 | 48 | 3.2 | 6.4 | 0.00 | 0.00 | 0.00 | 71 | 1014.2 |
| 20260502061327 | 3 | 73 | 0.0 | 4.8 | 0.00 | 0.00 | 0.00 | 72 | 1014.3 |
| 20260502060823 | 3 | 16 | 8.0 | 9.7 | 0.00 | 0.00 | 0.00 | 70 | 1014.4 |
| 20260502060318 | 3 | 10 | 8.0 | 11.3 | 0.00 | 0.00 | 0.00 | 73 | 1014.4 |
| 20260502055816 | 3 | 120 | 1.6 | 3.2 | 0.00 | 0.00 | 0.00 | 76 | 1014.3 |
| 20260502055314 | 3 | 99 | 1.6 | 3.2 | 0.00 | 0.00 | 0.00 | 76 | 1014.3 |
| 20260502054813 | 3 | 114 | 0.0 | 0.0 | 0.00 | 0.00 | 0.00 | 75 | 1014.4 |
| 20260502054310 | 3 | 114 | 0.0 | 0.0 | 0.00 | 0.00 | 0.00 | 75 | 1014.3 |
| 20260502053808 | 3 | 106 | 0.0 | 1.6 | 0.00 | 0.00 | 0.00 | 75 | 1014.3 |
| 20260502053305 | 3 | 104 | 0.0 | 3.2 | 0.00 | 0.00 | 0.00 | 75 | 1014.1 |
| 20260502052802 | 3 | 29 | 3.2 | 3.2 | 0.00 | 0.00 | 0.00 | 74 | 1014.6 |
| 20260502052300 | 3 | 105 | 0.0 | 1.6 | 0.00 | 0.00 | 0.00 | 74 | 1014.4 |
| 20260502051758 | 3 | 46 | 6.4 | 9.7 | 0.00 | 0.00 | 0.00 | 74 | 1014.3 |
| 20260502051257 | 3 | 38 | 1.6 | 4.8 | 0.00 | 0.00 | 0.00 | 74 | 1014.2 |
| 20260502050752 | 3 | 90 | 1.6 | 9.7 | 0.00 | 0.00 | 0.00 | 75 | 1014.4 |
| 20260502050248 | 3 | 60 | 1.6 | 4.8 | 0.00 | 0.00 | 0.00 | 77 | 1014.0 |
| 20260502045746 | 3 | 54 | 1.6 | 9.7 | 0.00 | 0.00 | 0.00 | 77 | 1014.3 |
| 20260502045242 | 3 | 135 | 1.6 | 3.2 | 0.00 | 0.00 | 0.00 | 79 | 1014.2 |
| 20260502044739 | 3 | 113 | 0.0 | 3.2 | 0.00 | 0.00 | 0.00 | 80 | 1014.3 |
| 20260502044235 | 3 | 132 | 0.0 | 1.6 | 0.00 | 0.00 | 0.00 | 81 | 1014.2 |
| 20260502043733 | 3 | 141 | 0.0 | 1.6 | 0.00 | 0.00 | 0.00 | 81 | 1014.2 |
| 20260502043231 | 3 | 122 | 1.6 | 3.2 | 0.00 | 0.00 | 0.00 | 83 | 1014.1 |
| 20260502042730 | 3 | 115 | 0.0 | 1.6 | 0.00 | 0.00 | 0.00 | 84 | 1014.1 |
| 20260502042227 | 3 | 107 | 0.0 | 0.0 | 0.00 | 0.00 | 0.00 | 84 | 1014.2 |
| 20260502041725 | 3 | 91 | 0.0 | 1.6 | 0.00 | 0.00 | 0.00 | 83 | 1014.0 |
| 20260502041222 | 3 | 104 | 0.0 | 1.6 | 0.00 | 0.00 | 0.00 | 83 | 1013.9 |
| 20260502040719 | 3 | 95 | 0.0 | 1.6 | 0.00 | 0.00 | 0.00 | 84 | 1013.9 |
| 20260502040216 | 3 | 46 | 1.6 | 4.8 | 0.00 | 0.00 | 0.00 | 85 | 1014.0 |
| 20260502035712 | 3 | 24 | 3.2 | 4.8 | 0.00 | 0.03 | 0.03 | 88 | 1013.9 |
| 20260502035209 | 3 | 16 | 6.4 | 9.7 | 0.00 | 0.03 | 0.03 | 92 | 1013.9 |
| 20260502034706 | 2 | 142 | 0.0 | 0.0 | 0.00 | 0.03 | 0.03 | 92 | 1013.9 |
| 20260502034205 | 2 | 143 | 0.0 | 0.0 | 0.00 | 0.03 | 0.03 | 92 | 1013.5 |
| 20260502033702 | 2 | 143 | 0.0 | 0.0 | 0.00 | 0.03 | 0.03 | 92 | 1013.7 |
| 20260502033200 | 2 | 127 | 0.0 | 0.0 | 0.00 | 0.03 | 0.03 | 92 | 1013.6 |
| 20260502032656 | 2 | 125 | 0.0 | 1.6 | 0.00 | 0.03 | 0.03 | 92 | 1013.5 |
| 20260502032152 | 1 | 125 | 0.0 | 0.0 | 0.00 | 0.03 | 0.03 | 90 | 1013.6 |
| 20260502031650 | 1 | 125 | 0.0 | 0.0 | 0.00 | 0.03 | 0.03 | 89 | 1013.7 |
| 20260502031148 | 1 | 125 | 0.0 | 0.0 | 0.00 | 0.03 | 0.03 | 89 | 1013.6 |
| 20260502030646 | 1 | 125 | 0.0 | 0.0 | 0.00 | 0.03 | 0.03 | 89 | 1013.6 |
| 20260502030144 | 1 | 125 | 0.0 | 1.6 | 0.00 | 0.03 | 0.03 | 88 | 1013.6 |
| 20260502025641 | 1 | 124 | 0.0 | 0.0 | 0.00 | 0.03 | 0.03 | 86 | 1013.6 |
| 20260502025139 | 1 | 124 | 0.0 | 0.0 | 0.00 | 0.03 | 0.03 | 86 | 1013.6 |
| 20260502024637 | 2 | 124 | 0.0 | 0.0 | 0.00 | 0.03 | 0.03 | 85 | 1013.8 |
| 20260502024134 | 2 | 124 | 0.0 | 0.0 | 0.00 | 0.03 | 0.03 | 85 | 1013.5 |
| 20260502023632 | 2 | 130 | 0.0 | 0.0 | 0.00 | 0.03 | 0.03 | 85 | 1013.5 |
| 20260502023129 | 2 | 130 | 0.0 | 1.6 | 0.00 | 0.03 | 0.03 | 85 | 1013.5 |
| 20260502022626 | 2 | 129 | 0.0 | 0.0 | 0.00 | 0.03 | 0.03 | 84 | 1013.8 |
| 20260502022123 | 2 | 129 | 0.0 | 0.0 | 0.00 | 0.03 | 0.03 | 83 | 1013.7 |
| 20260502021620 | 2 | 129 | 0.0 | 1.6 | 0.00 | 0.03 | 0.03 | 82 | 1013.6 |
| 20260502021117 | 2 | 127 | 0.0 | 0.0 | 0.00 | 0.03 | 0.03 | 81 | 1013.5 |
| 20260502020615 | 3 | 144 | 0.0 | 0.0 | 0.00 | 0.03 | 0.03 | 80 | 1013.6 |
| 20260502020112 | 3 | 152 | 1.6 | 1.6 | 0.00 | 0.03 | 0.03 | 80 | 1013.5 |
| 20260502015610 | 3 | 156 | 1.6 | 1.6 | 0.00 | 0.03 | 0.03 | 79 | 1013.4 |
| 20260502015106 | 3 | 131 | 0.0 | 3.2 | 0.00 | 0.03 | 0.03 | 78 | 1013.2 |
| 20260502014603 | 4 | 183 | 1.6 | 3.2 | 0.00 | 0.03 | 0.03 | 78 | 1013.2 |
| 20260502014100 | 4 | 265 | 1.6 | 6.4 | 0.00 | 0.03 | 0.03 | 78 | 1013.2 |
| 20260502013555 | 4 | 172 | 1.6 | 3.2 | 0.00 | 0.03 | 0.03 | 78 | 1013.1 |
| 20260502013052 | 4 | 168 | 1.6 | 3.2 | 0.00 | 0.03 | 0.03 | 78 | 1013.0 |
| 20260502012549 | 4 | 159 | 1.6 | 3.2 | 0.00 | 0.03 | 0.03 | 77 | 1013.2 |
| 20260502012047 | 5 | 153 | 1.6 | 1.6 | 0.00 | 0.03 | 0.03 | 76 | 1013.0 |
| 20260502011543 | 5 | 162 | 1.6 | 1.6 | 0.00 | 0.03 | 0.03 | 76 | 1013.0 |
| 20260502011039 | 5 | 174 | 0.0 | 3.2 | 0.00 | 0.03 | 0.03 | 75 | 1013.0 |
| 20260502010537 | 5 | 270 | 4.8 | 4.8 | 0.00 | 0.03 | 0.03 | 74 | 1013.0 |
| 20260502010033 | 5 | 188 | 3.2 | 3.2 | 0.00 | 0.03 | 0.03 | 74 | 1013.0 |
| 20260502005531 | 5 | 156 | 1.6 | 1.6 | 0.00 | 0.03 | 0.03 | 74 | 1012.7 |
| 20260502005029 | 5 | 156 | 1.6 | 3.2 | 0.00 | 0.03 | 0.03 | 74 | 1012.9 |
| 20260502004524 | 5 | 338 | 1.6 | 4.8 | 0.00 | 0.03 | 0.03 | 74 | 1012.9 |
| 20260502004021 | 5 | 200 | 1.6 | 9.7 | 0.00 | 0.03 | 0.03 | 73 | 1012.9 |
| 20260502003519 | 5 | 196 | 1.6 | 4.8 | 0.00 | 0.03 | 0.03 | 73 | 1012.8 |
| 20260502003015 | 5 | 168 | 0.0 | 3.2 | 0.00 | 0.03 | 0.03 | 74 | 1012.9 |
| 20260502002512 | 5 | 205 | 1.6 | 6.4 | 0.00 | 0.03 | 0.03 | 73 | 1012.9 |
| 20260502002010 | 5 | 148 | 1.6 | 3.2 | 0.00 | 0.03 | 0.03 | 73 | 1012.8 |
| 20260502001507 | 6 | 176 | 1.6 | 3.2 | 0.00 | 0.03 | 0.03 | 72 | 1012.8 |
| 20260502001004 | 6 | 213 | 3.2 | 6.4 | 0.00 | 0.03 | 0.03 | 72 | 1012.7 |
| 20260502000503 | 6 | 264 | 3.2 | 4.8 | 0.00 | 0.03 | 0.03 | 72 | 1012.7 |
| 20260501235959 | 6 | 167 | 1.6 | 4.8 | 0.00 | 0.03 | 0.03 | 73 | 1012.7 |
| 20260501235454 | 6 | 9 | 6.4 | 9.7 | 0.00 | 0.03 | 0.03 | 73 | 1012.7 |
| 20260501234950 | 6 | 90 | 1.6 | 9.7 | 0.00 | 0.03 | 0.03 | 73 | 1012.6 |
| 20260501234447 | 6 | 306 | 3.2 | 11.3 | 0.00 | 0.03 | 0.03 | 72 | 1012.4 |
| 20260501233945 | 6 | 252 | 3.2 | 4.8 | 0.00 | 0.03 | 0.03 | 73 | 1012.7 |
| 20260501233443 | 6 | 172 | 0.0 | 3.2 | 0.00 | 0.03 | 0.03 | 73 | 1012.4 |
| 20260501232938 | 6 | 258 | 4.8 | 9.7 | 0.00 | 0.03 | 0.03 | 73 | 1012.6 |
| 20260501232436 | 6 | 271 | 4.8 | 6.4 | 0.00 | 0.03 | 0.03 | 72 | 1012.4 |
| 20260501231932 | 6 | 242 | 1.6 | 3.2 | 0.00 | 0.03 | 0.03 | 72 | 1012.3 |
| 20260501231431 | 6 | 189 | 0.0 | 4.8 | 0.00 | 0.03 | 0.03 | 72 | 1012.2 |